Location: Newark
(50.4348°N, 30.5552°E)
Time: 11:04:55
(UTC+00:00)

Tiros 1 despin weight - Pass Details

Date: 25 January 2020
Orbit: 594 x 642 km, 48.2° (Epoch: 20 February)

Event Time Altitude Azimuth Distance (km) Brightness Sun altitude
Rises 14:46:06 0° 280° (W) 2,915 ? -2.0°
Reaches altitude 10° 14:48:42 10° 268° (W) 2,013 ? -2.4°
Maximum altitude 14:52:32 26° 212° (SSW) 1,250 ? -2.9°
Drops below altitude 10° 14:56:24 10° 156° (SSE) 2,022 ? -3.5°
Sets 14:59:01 0° 143° (SE) 2,931 ? -3.9°
